• In Romania
  • List of Countries
  • For 7 days
  • Water Temperature
  • Satellite Maps
  • Weather Map
  • Weather Widgets
  • user-avatar
    Login

    Hourly Weather Solden

    Today, 23 May, Tuesday

    Time Temperature Precipitation Wind Pressure Humidity
    00:00 +1°C° 0.1 mm 1 mps 581 mmHg 92%
    01:00 +1°C° 0 mm 1 mps 581 mmHg 91%
    02:00 +1°C° 0 mm 1 mps 581 mmHg 91%
    03:00 0°C° 0 mm 1 mps 581 mmHg 90%
    04:00 0°C° 0 mm 1 mps 581 mmHg 90%
    05:00 +2°C° 0 mm 1 mps 582 mmHg 86%
    06:00 +4°C° 0 mm 1 mps 584 mmHg 82%
    07:00 +6°C° 0 mm 1 mps 585 mmHg 78%
    08:00 +8°C° 0 mm 1 mps 586 mmHg 68%
    09:00 +10°C° 0 mm 1 mps 587 mmHg 59%
    10:00 +12°C° 0 mm 1 mps 588 mmHg 49%
    11:00 +13°C° 0 mm 1 mps 588 mmHg 47%
    12:00 +14°C° 0 mm 1 mps 588 mmHg 44%
    13:00 +14°C° 0 mm 1 mps 588 mmHg 42%
    14:00 +14°C° 0.1 mm 2 mps 588 mmHg 45%
    15:00 +14°C° 0.1 mm 2 mps 588 mmHg 47%
    16:00 +13°C° 0.1 mm 2 mps 588 mmHg 50%
    17:00 +12°C° 0.1 mm 1 mps 587 mmHg 60%
    18:00 +10°C° 0.1 mm 1 mps 586 mmHg 70%
    19:00 +8°C° 0.1 mm 1 mps 585 mmHg 80%
    20:00 +7°C° 0 mm 1 mps 585 mmHg 82%
    21:00 +5°C° 0 mm 1 mps 585 mmHg 84%
    22:00 +3°C° 0 mm 2 mps 584 mmHg 86%
    23:00 +3°C° 0 mm 2 mps 584 mmHg 87%

    Tomorrow, 24 May, Wednesday

    Time Temperature Precipitation Wind Pressure Humidity
    00:00 +2°C° 0 mm 2 mps 584 mmHg 88%
    01:00 +2°C° 0 mm 2 mps 584 mmHg 89%
    02:00 +2°C° 0 mm 2 mps 584 mmHg 88%
    03:00 +1°C° 0 mm 2 mps 583 mmHg 88%
    04:00 +1°C° 0 mm 2 mps 583 mmHg 88%
    05:00 +3°C° 0 mm 2 mps 584 mmHg 84%
    06:00 +4°C° 0 mm 2 mps 585 mmHg 80%
    07:00 +6°C° 0 mm 2 mps 586 mmHg 76%
    08:00 +8°C° 0 mm 2 mps 587 mmHg 69%
    09:00 +9°C° 0 mm 2 mps 588 mmHg 61%
    10:00 +12°C° 0 mm 2 mps 589 mmHg 53%
    11:00 +13°C° 0 mm 2 mps 589 mmHg 51%
    12:00 +14°C° 0 mm 2 mps 589 mmHg 48%
    13:00 +14°C° 0 mm 2 mps 589 mmHg 45%
    14:00 +14°C° 0 mm 2 mps 589 mmHg 46%
    15:00 +14°C° 0 mm 2 mps 588 mmHg 48%
    16:00 +14°C° 0 mm 2 mps 588 mmHg 49%
    17:00 +12°C° 0 mm 2 mps 588 mmHg 57%
    18:00 +9°C° 0 mm 2 mps 587 mmHg 66%
    19:00 +8°C° 0 mm 2 mps 586 mmHg 74%
    20:00 +6°C° 0 mm 2 mps 586 mmHg 78%
    21:00 +4°C° 0 mm 2 mps 585 mmHg 82%
    22:00 +3°C° 0 mm 2 mps 585 mmHg 87%
    23:00 +2°C° 0 mm 2 mps 585 mmHg 87%

    Day after tomorrow, 25 May, Thursday

    Time Temperature Precipitation Wind Pressure Humidity
    00:00 +2°C° 0 mm 2 mps 584 mmHg 87%
    01:00 +1°C° 0 mm 2 mps 584 mmHg 88%
    02:00 +1°C° 0 mm 2 mps 584 mmHg 87%
    03:00 +1°C° 0 mm 2 mps 584 mmHg 85%
    04:00 -1°C° 0 mm 2 mps 583 mmHg 84%
    05:00 +2°C° 0 mm 2 mps 584 mmHg 77%
    06:00 +4°C° 0 mm 2 mps 585 mmHg 70%
    07:00 +6°C° 0 mm 2 mps 586 mmHg 63%
    08:00 +8°C° 0 mm 2 mps 587 mmHg 57%
    09:00 +10°C° 0 mm 2 mps 588 mmHg 51%
    10:00 +13°C° 0 mm 2 mps 589 mmHg 45%
    11:00 +13°C° 0 mm 2 mps 589 mmHg 43%
    12:00 +14°C° 0 mm 2 mps 589 mmHg 42%
    13:00 +15°C° 0 mm 2 mps 589 mmHg 40%
    14:00 +15°C° 0 mm 2 mps 589 mmHg 42%
    15:00 +15°C° 0 mm 2 mps 588 mmHg 44%
    16:00 +14°C° 0 mm 2 mps 588 mmHg 46%
    17:00 +13°C° 0 mm 2 mps 587 mmHg 57%
    18:00 +10°C° 0 mm 2 mps 586 mmHg 68%
    19:00 +9°C° 0 mm 1 mps 585 mmHg 78%
    20:00 +8°C° 0 mm 1 mps 585 mmHg 82%
    21:00 +6°C° 0 mm 1 mps 584 mmHg 86%
    22:00 +4°C° 0 mm 1 mps 584 mmHg 90%
    23:00 +4°C° 0 mm 1 mps 583 mmHg 90%

    26 May, Friday

    Time Temperature Precipitation Wind Pressure Humidity
    00:00 +3°C° 0 mm 1 mps 583 mmHg 91%
    01:00 +3°C° 0 mm 1 mps 583 mmHg 91%
    02:00 +3°C° 0 mm 1 mps 582 mmHg 90%
    03:00 +1°C° 0 mm 2 mps 582 mmHg 90%
    04:00 +1°C° 0 mm 2 mps 582 mmHg 90%
    05:00 +3°C° 0 mm 2 mps 583 mmHg 82%
    06:00 +5°C° 0 mm 2 mps 583 mmHg 75%
    07:00 +6°C° 0 mm 2 mps 584 mmHg 68%
    08:00 +8°C° 0 mm 2 mps 585 mmHg 59%
    09:00 +10°C° 0 mm 2 mps 586 mmHg 50%
    10:00 +14°C° 0 mm 2 mps 587 mmHg 40%
    11:00 +14°C° 0 mm 2 mps 587 mmHg 39%
    12:00 +15°C° 0 mm 2 mps 587 mmHg 38%
    13:00 +16°C° 0 mm 2 mps 587 mmHg 37%
    14:00 +16°C° 0 mm 2 mps 587 mmHg 39%
    15:00 +15°C° 0 mm 2 mps 586 mmHg 41%
    16:00 +15°C° 0 mm 2 mps 586 mmHg 44%
    17:00 +13°C° 0 mm 2 mps 585 mmHg 56%
    18:00 +12°C° 0 mm 2 mps 584 mmHg 68%
    19:00 +10°C° 0 mm 1 mps 584 mmHg 80%
    20:00 +8°C° 0 mm 1 mps 583 mmHg 85%
    21:00 +6°C° 0 mm 1 mps 583 mmHg 89%
    22:00 +4°C° 0 mm 1 mps 582 mmHg 94%
    23:00 +4°C° 0 mm 1 mps 582 mmHg 94%

    27 May, Saturday

    Time Temperature Precipitation Wind Pressure Humidity
    00:00 +3°C° 0 mm 1 mps 581 mmHg 94%
    01:00 +3°C° 0 mm 1 mps 581 mmHg 94%
    02:00 +2°C° 0 mm 1 mps 581 mmHg 94%
    03:00 +2°C° 0 mm 1 mps 580 mmHg 93%
    04:00 +1°C° 0 mm 1 mps 580 mmHg 93%
    05:00 +4°C° 0 mm 1 mps 581 mmHg 85%
    06:00 +6°C° 0 mm 1 mps 583 mmHg 77%
    07:00 +7°C° 0 mm 0 mps 584 mmHg 68%
    08:00 +10°C° 0 mm 1 mps 585 mmHg 61%
    09:00 +12°C° 0 mm 1 mps 586 mmHg 54%
    10:00 +13°C° 0 mm 1 mps 586 mmHg 47%
    11:00 +14°C° 0 mm 2 mps 587 mmHg 47%
    12:00 +14°C° 0 mm 2 mps 587 mmHg 46%
    13:00 +15°C° 0 mm 2 mps 587 mmHg 46%
    14:00 +14°C° 0.2 mm 2 mps 587 mmHg 50%
    15:00 +14°C° 0.2 mm 2 mps 586 mmHg 55%
    16:00 +13°C° 0.2 mm 2 mps 586 mmHg 59%
    17:00 +12°C° 0.2 mm 2 mps 586 mmHg 68%
    18:00 +9°C° 0.2 mm 2 mps 585 mmHg 77%
    19:00 +9°C° 0.2 mm 1 mps 585 mmHg 86%
    20:00 +7°C° 0 mm 1 mps 584 mmHg 90%
    21:00 +6°C° 0 mm 1 mps 584 mmHg 93%
    22:00 +5°C° 0 mm 1 mps 584 mmHg 97%
    23:00 +5°C° 0.1 mm 1 mps 584 mmHg 97%

    28 May, Sunday

    Time Temperature Precipitation Wind Pressure Humidity
    00:00 +5°C° 0.1 mm 1 mps 585 mmHg 97%
    01:00 +5°C° 0.1 mm 1 mps 585 mmHg 97%
    02:00 +5°C° 0 mm 1 mps 585 mmHg 97%
    03:00 +5°C° 0 mm 1 mps 585 mmHg 97%
    04:00 +4°C° 0 mm 1 mps 585 mmHg 97%
    05:00 +5°C° 0 mm 1 mps 585 mmHg 93%
    06:00 +6°C° 0 mm 1 mps 586 mmHg 89%
    07:00 +7°C° 0 mm 1 mps 587 mmHg 86%
    08:00 +9°C° 0 mm 1 mps 587 mmHg 75%
    09:00 +11°C° 0 mm 1 mps 588 mmHg 65%
    10:00 +13°C° 0 mm 1 mps 589 mmHg 55%
    11:00 +14°C° 0 mm 1 mps 590 mmHg 52%
    12:00 +15°C° 0 mm 1 mps 590 mmHg 49%
    13:00 +15°C° 0 mm 2 mps 590 mmHg 46%
    14:00 +15°C° 0 mm 2 mps 590 mmHg 49%
    15:00 +14°C° 0 mm 2 mps 589 mmHg 53%
    16:00 +14°C° 0 mm 2 mps 589 mmHg 56%
    17:00 +12°C° 0.1 mm 2 mps 589 mmHg 65%
    18:00 +11°C° 0.1 mm 1 mps 588 mmHg 74%
    19:00 +10°C° 0.1 mm 1 mps 588 mmHg 82%
    20:00 +8°C° 0 mm 1 mps 587 mmHg 87%
    21:00 +7°C° 0 mm 1 mps 587 mmHg 92%
    22:00 +5°C° 0 mm 1 mps 587 mmHg 97%
    23:00 +5°C° 0 mm 1 mps 586 mmHg 97%
    Show more